Weather History for Silver Bay, MN

Change the Weather History Date:

Friday, December 28, 2012

  Actual Average Record
Temperature  
Mean Temperature 22 °F -  
Max Temperature 28 °F 19 °F 39 °F (2002)
Min Temperature 15 °F 2 °F -2 °F (2007)
Degree Days  
Heating Degree Days 44    
Moisture  
Dew Point 16 °F    
Average Humidity 81    
Maximum Humidity 93    
Minimum Humidity 59    
Precipitation  
Precipitation 0.08 in - - ()
Sea Level Pressure  
Sea Level Pressure 30.04 in    
Wind  
Wind Speed 0 mph (West)    
Max Wind Speed 6 mph    
Max Gust Speed -    
Visibility 4 miles    
Events Snow    
Averages and records for this station are not official NWS values.
T = Trace of Precipitation, MM = Missing Value Source: NWS Daily Summary

Daily Weather History Graph

Daily Weather History Graph

Search for Another Location

Airport:

Trip Planner

Search our weather history database for the weather conditions in past years. The results will help you decide how hot, cold, wet, or windy it might be!

Date:

Astronomy

Dec. 28, 2012 Rise Set
Actual Time 7:52 AM CST 4:23 PM CST
Civil Twilight 7:16 AM CST 4:58 PM CST
Nautical Twilight 6:37 AM CST 5:37 PM CST
Astronomical Twilight 6:00 AM CST 6:14 PM CST
Moon 5:04 PM CST (12/28) 7:43 AM CST (12/28)
Length of Visible Light 9h 42m
Length of Day
8h 30m
Full, 100% of the Moon is Illuminated
Dec 28
Full
Jan 4
Last Quarter
Jan 11
New
Jan 18
First Quarter
Jan 26
Full

Hourly Weather History & Observations

Time (CST) Temp. Windchill Dew Point Humidity Pressure Visibility Wind Dir Wind Speed Gust Speed Precip Events Conditions
12:13 AM 19.4 °F - 17.6 °F 93% 30.12 in 2.0 mi Calm Calm - N/A Snow Light Snow
12:33 AM 19.4 °F - 15.8 °F 86% 30.12 in 1.8 mi Calm Calm - 0.01 in Snow Light Snow
12:53 AM 19.4 °F - 15.8 °F 86% 30.12 in 1.0 mi Calm Calm - N/A Snow Light Snow
1:13 AM 21.2 °F 13.6 °F 17.6 °F 86% 30.11 in 1.0 mi West 5.8 mph - 0.01 in Snow Snow
1:33 AM 21.2 °F - 17.6 °F 86% 30.11 in 1.0 mi Calm Calm - 0.01 in Snow Snow
1:53 AM 21.2 °F - 17.6 °F 86% 30.11 in 1.2 mi Calm Calm - 0.01 in Snow Light Snow
2:13 AM 21.2 °F - 17.6 °F 86% 30.12 in 1.5 mi Calm Calm - 0.02 in Snow Light Snow
2:33 AM 19.4 °F - 17.6 °F 93% 30.12 in 1.5 mi Calm Calm - 0.03 in Snow Light Snow
2:53 AM 19.4 °F - 15.8 °F 86% 30.12 in 1.2 mi Calm Calm - N/A Snow Light Snow
3:13 AM 19.4 °F - 15.8 °F 86% 30.12 in 1.2 mi Calm Calm - 0.01 in Snow Light Snow
3:33 AM 19.4 °F - 15.8 °F 86% 30.12 in 1.5 mi Calm Calm - 0.01 in Snow Light Snow
3:53 AM 19.4 °F - 15.8 °F 86% 30.11 in 1.0 mi Calm Calm - N/A Snow Snow
4:13 AM 19.4 °F - 15.8 °F 86% 30.11 in 1.2 mi Calm Calm - 0.01 in Snow Snow
4:33 AM 19.4 °F - 15.8 °F 86% 30.10 in 1.8 mi Calm Calm - 0.01 in Snow Light Snow
4:53 AM 19.4 °F - 15.8 °F 86% 30.10 in 1.8 mi Calm Calm - N/A Snow Light Snow
5:13 AM 19.4 °F - 15.8 °F 86% 30.10 in 2.0 mi Calm Calm - N/A Snow Light Snow
5:33 AM 19.4 °F - 15.8 °F 86% 30.09 in 3.0 mi Calm Calm - N/A Snow Light Snow
5:53 AM 19.4 °F - 15.8 °F 86% 30.09 in 3.0 mi Calm Calm - N/A Snow Light Snow
6:13 AM 17.6 °F - 14.0 °F 86% 30.09 in 5.0 mi Calm Calm - N/A Snow Light Snow
6:33 AM 17.6 °F - 12.2 °F 79% 30.09 in 5.0 mi Calm Calm - N/A Snow Light Snow
6:53 AM 15.8 °F - 12.2 °F 86% 30.09 in 10.0 mi Calm Calm - N/A Snow Light Snow
7:13 AM 15.8 °F - 12.2 °F 86% 30.09 in 7.0 mi Calm Calm - N/A Snow Light Snow
7:33 AM 17.6 °F - 12.2 °F 79% 30.08 in 10.0 mi Calm Calm - N/A Snow Light Snow
7:53 AM 17.6 °F - 12.2 °F 79% 30.08 in 10.0 mi Calm Calm - N/A Snow Light Snow
8:13 AM 17.6 °F - 12.2 °F 79% 30.07 in 10.0 mi Calm Calm - N/A   Overcast
8:33 AM 17.6 °F - 14.0 °F 86% 30.08 in 10.0 mi Calm Calm - N/A   Overcast
8:53 AM 17.6 °F - 14.0 °F 86% 30.07 in 10.0 mi Calm Calm - N/A   Overcast
9:13 AM 21.2 °F - 15.8 °F 80% 30.07 in 10.0 mi Calm Calm - N/A   Overcast
9:33 AM 26.6 °F - 19.4 °F 74% 30.08 in 10.0 mi Calm Calm - N/A   Mostly Cloudy
9:53 AM 26.6 °F - 19.4 °F 74% 30.08 in 10.0 mi Calm Calm - N/A   Mostly Cloudy
10:13 AM 26.6 °F - 17.6 °F 69% 30.07 in 10.0 mi Calm Calm - N/A   Mostly Cloudy
10:33 AM 26.6 °F - 17.6 °F 69% 30.07 in 5.0 mi Calm Calm - N/A   Haze
10:53 AM 28.4 °F - 17.6 °F 64% 30.07 in 3.0 mi Calm Calm - N/A Snow Light Snow
11:13 AM 28.4 °F - 17.6 °F 64% 30.06 in 7.0 mi Calm Calm - N/A   Mostly Cloudy
11:53 AM 28.4 °F - 15.8 °F 59% 30.04 in 2.0 mi Calm Calm - N/A Snow Light Snow
12:13 PM 26.6 °F - 17.6 °F 69% 30.03 in 4.0 mi Calm Calm - N/A Snow Light Snow
12:33 PM 26.6 °F - 15.8 °F 64% 30.03 in 4.0 mi Calm Calm - N/A Snow Light Snow
12:53 PM 24.8 °F - 17.6 °F 74% 30.02 in 2.5 mi Calm Calm - N/A Snow Light Snow
1:13 PM 24.8 °F - 17.6 °F 74% 30.02 in 2.5 mi Calm Calm - N/A Snow Light Snow
1:33 PM 26.6 °F - 17.6 °F 69% 30.01 in 3.0 mi Calm Calm - N/A Snow Light Snow
1:57 PM 26.6 °F - 17.6 °F 69% 30.00 in 2.0 mi Calm Calm - N/A Snow Light Snow
2:13 PM 26.6 °F - 17.6 °F 69% 30.00 in 2.5 mi Calm Calm - N/A Snow Light Snow
2:33 PM 24.8 °F - 17.6 °F 74% 30.00 in 3.0 mi Calm Calm - N/A Snow Light Snow
2:53 PM 24.8 °F - 15.8 °F 69% 30.00 in 5.0 mi Calm Calm - N/A Snow Light Snow
3:13 PM 24.8 °F - 15.8 °F 69% 30.00 in 2.5 mi Calm Calm - N/A Snow Light Snow
3:33 PM 24.8 °F - 15.8 °F 69% 30.00 in 1.5 mi Calm Calm - N/A Snow Light Snow
3:53 PM 23.0 °F - 15.8 °F 74% 29.99 in 3.0 mi Calm Calm - N/A Snow Light Snow
4:33 PM 21.2 °F - 15.8 °F 80% 30.00 in 2.0 mi Calm Calm - N/A Snow Light Snow
4:53 PM 19.4 °F - 15.8 °F 86% 30.00 in 2.5 mi Calm Calm - N/A Snow Light Snow
5:13 PM 19.4 °F - 14.0 °F 80% 30.00 in 4.0 mi Calm Calm - N/A Snow Light Snow
5:33 PM 19.4 °F - 15.8 °F 86% 30.00 in 4.0 mi Calm Calm - N/A Snow Light Snow
5:53 PM 19.4 °F - 15.8 °F 86% 30.00 in 4.0 mi Calm Calm - N/A Snow Light Snow
6:13 PM 19.4 °F - 15.8 °F 86% 30.00 in 7.0 mi Calm Calm - N/A Snow Light Snow
6:33 PM 19.4 °F - 15.8 °F 86% 30.00 in 7.0 mi Calm Calm - N/A Snow Light Snow
6:53 PM 19.4 °F - 15.8 °F 86% 29.99 in 3.0 mi Calm Calm - N/A Snow Light Snow
7:13 PM 19.4 °F - 15.8 °F 86% 29.99 in 2.5 mi Calm Calm - N/A Snow Light Snow
7:33 PM 17.6 °F - 15.8 °F 93% 29.99 in 7.0 mi Calm Calm - N/A Snow Light Snow
7:53 PM 17.6 °F - 15.8 °F 93% 29.99 in 5.0 mi Calm Calm - N/A Snow Light Snow
8:13 PM 17.6 °F - 15.8 °F 93% 29.98 in 2.5 mi Calm Calm - N/A Snow Light Snow
8:33 PM 19.4 °F - 15.8 °F 86% 29.99 in 2.0 mi Calm Calm - N/A Snow Light Snow
8:53 PM 19.4 °F - 15.8 °F 86% 29.98 in 2.5 mi Calm Calm - N/A Snow Light Snow
9:13 PM 19.4 °F - 15.8 °F 86% 29.98 in 1.8 mi Calm Calm - N/A Snow Light Snow
9:33 PM 19.4 °F - 15.8 °F 86% 29.98 in 1.5 mi Calm Calm - N/A Snow Light Snow
9:55 PM 19.4 °F - 15.8 °F 86% 29.97 in 2.5 mi Calm Calm - 0.01 in Snow Light Snow
10:13 PM 17.6 °F - 12.2 °F 79% 29.97 in 3.0 mi Calm Calm - 0.01 in Snow Light Snow
10:33 PM 17.6 °F - 14.0 °F 86% 29.97 in 4.0 mi Calm Calm - 0.01 in Snow Light Snow
10:53 PM 17.6 °F - 14.0 °F 86% 29.97 in 7.0 mi Calm Calm - N/A Snow Light Snow
11:13 PM 17.6 °F - 14.0 °F 86% 29.96 in 7.0 mi Calm Calm - N/A Snow Light Snow
11:33 PM 17.6 °F - 12.2 °F 79% 29.96 in 10.0 mi Calm Calm - N/A Snow Light Snow
11:53 PM 17.6 °F - 14.0 °F 86% 29.95 in 10.0 mi Calm Calm - N/A Snow Light Snow